Weather History for West Memphis, AR

Change the Weather History Date:

Tuesday, February 11, 2014

  Actual Average Record
Temperature  
Mean Temperature 23 °F -  
Max Temperature 30 °F 53 °F 72 °F (1984)
Min Temperature 16 °F 32 °F 6 °F (1981)
Degree Days  
Heating Degree Days 42    
Moisture  
Dew Point 15 °F    
Average Humidity 69    
Maximum Humidity 77    
Minimum Humidity 58    
Precipitation  
Precipitation 0.00 in - - ()
Sea Level Pressure  
Sea Level Pressure 30.35 in    
Wind  
Wind Speed 14 mph (NNE)    
Max Wind Speed 22 mph    
Max Gust Speed 25 mph    
Visibility 10 miles    
Events      
Averages and records for this station are not official NWS values.
T = Trace of Precipitation, MM = Missing Value Source: NWS Daily Summary

Daily Weather History Graph

Daily Weather History Graph

Search for Another Location

Airport:

Trip Planner

Search our weather history database for the weather conditions in past years. The results will help you decide how hot, cold, wet, or windy it might be!

Date:

Astronomy

Feb. 11, 2014 Rise Set
Actual Time 6:51 AM CST 5:39 PM CST
Civil Twilight 6:25 AM CST 6:05 PM CST
Nautical Twilight 5:55 AM CST 6:35 PM CST
Astronomical Twilight 5:25 AM CST 7:05 PM CST
Moon 3:03 PM CST (2/11) 4:25 AM CST (2/11)
Length of Visible Light 11h 40m
Length of Day
10h 48m
Waxing Gibbous, 91% of the Moon is Illuminated
Feb 11
Waxing Gibbous
Feb 14
Full
Feb 22
Last Quarter
Mar 1
New
Mar 8
First Quarter

Hourly Weather History & Observations

Time (CST) Temp. Windchill Dew Point Humidity Pressure Visibility Wind Dir Wind Speed Gust Speed Precip Events Conditions
12:53 AM 24.1 °F 13.1 °F 15.1 °F 69% 30.37 in 10.0 mi NNE 11.5 mph - N/A   Overcast
1:53 AM 21.0 °F 7.6 °F 14.0 °F 74% 30.37 in 10.0 mi North 15.0 mph 24.2 mph N/A   Overcast
2:53 AM 19.0 °F 3.6 °F 12.9 °F 77% 30.36 in 10.0 mi North 18.4 mph - N/A   Overcast
3:53 AM 19.0 °F 5.0 °F 12.0 °F 74% 30.35 in 10.0 mi North 15.0 mph - N/A   Overcast
4:53 AM 18.0 °F 3.6 °F 10.9 °F 74% 30.37 in 10.0 mi NNE 15.0 mph 24.2 mph N/A   Overcast
5:53 AM 17.1 °F -0.3 °F 10.0 °F 74% 30.38 in 10.0 mi NNE 21.9 mph 25.3 mph N/A   Overcast
6:53 AM 17.1 °F 1.5 °F 10.0 °F 74% 30.40 in 10.0 mi NNE 17.3 mph - N/A   Overcast
7:53 AM 16.0 °F 0.6 °F 9.0 °F 74% 30.43 in 10.0 mi NNE 16.1 mph 25.3 mph N/A   Clear
8:53 AM 18.0 °F 4.2 °F 10.0 °F 71% 30.43 in 10.0 mi North 13.8 mph 21.9 mph N/A   Overcast
9:53 AM 21.0 °F 7.6 °F 10.9 °F 65% 30.43 in 10.0 mi NNE 15.0 mph - N/A   Partly Cloudy
10:53 AM 25.0 °F 14.2 °F 12.9 °F 60% 30.43 in 10.0 mi NE 11.5 mph - N/A   Clear
11:53 AM 27.0 °F 16.1 °F 14.0 °F 58% 30.41 in 10.0 mi NNE 12.7 mph 18.4 mph N/A   Clear
12:53 PM 28.9 °F 19.2 °F 16.0 °F 58% 30.36 in 10.0 mi North 11.5 mph 20.7 mph N/A   Clear
1:53 PM 30.0 °F 19.5 °F 18.0 °F 61% 30.35 in 10.0 mi North 13.8 mph - N/A   Clear
2:53 PM 30.0 °F 18.7 °F 18.0 °F 61% 30.32 in 10.0 mi North 16.1 mph 21.9 mph N/A   Clear
3:53 PM 26.1 °F 12.7 °F 18.0 °F 71% 30.30 in 10.0 mi North 18.4 mph - N/A   Clear
4:53 PM 26.1 °F 15.6 °F 18.0 °F 71% 30.28 in 10.0 mi North 11.5 mph 20.7 mph N/A   Clear
5:53 PM 26.1 °F 15.0 °F 18.0 °F 71% 30.27 in 10.0 mi NNE 12.7 mph - N/A   Clear
6:53 PM 26.1 °F 16.2 °F 18.0 °F 71% 30.29 in 10.0 mi North 10.4 mph - N/A   Mostly Cloudy
7:53 PM 26.1 °F 16.2 °F 17.1 °F 69% 30.30 in 10.0 mi NNE 10.4 mph - N/A   Mostly Cloudy
8:53 PM 25.0 °F 16.3 °F 18.0 °F 75% 30.31 in 10.0 mi North 8.1 mph - N/A   Mostly Cloudy
9:53 PM 26.1 °F 18.4 °F 18.0 °F 71% 30.30 in 10.0 mi North 6.9 mph - N/A   Overcast
10:53 PM 26.1 °F 16.8 °F 18.0 °F 71% 30.27 in 10.0 mi North 9.2 mph - N/A   Overcast
11:53 PM 26.1 °F 16.2 °F 17.1 °F 69% 30.27 in 10.0 mi North 10.4 mph - N/A   Overcast